TimeCST,TemperatureF,Dew PointF,Humidity,Sea Level PressureIn,VisibilityMPH,Wind Direction,Wind SpeedMPH,Gust SpeedMPH,PrecipitationIn,Events,Conditions,WindDirDegrees,DateUTC
12:53 AM,48.0,28.9,48,30.13,10.0,North,10.4,-,N/A,,Clear,350,2013-02-19 06:53:00
1:53 AM,46.9,28.0,48,30.13,10.0,NNE,9.2,-,N/A,,Clear,20,2013-02-19 07:53:00
2:53 AM,46.0,28.0,50,30.10,10.0,NE,13.8,-,N/A,,Clear,40,2013-02-19 08:53:00
3:53 AM,44.1,27.0,51,30.14,10.0,North,4.6,-,N/A,,Mostly Cloudy,10,2013-02-19 09:53:00
4:53 AM,42.1,27.0,55,30.17,10.0,NE,4.6,-,N/A,,Mostly Cloudy,40,2013-02-19 10:53:00
5:53 AM,41.0,26.1,55,30.20,10.0,NNE,5.8,-,N/A,,Mostly Cloudy,30,2013-02-19 11:53:00
6:53 AM,39.9,26.1,58,30.23,10.0,NNE,4.6,-,N/A,,Mostly Cloudy,30,2013-02-19 12:53:00
7:53 AM,44.1,27.0,51,30.29,10.0,Calm,Calm,-,N/A,,Mostly Cloudy,0,2013-02-19 13:53:00
8:53 AM,46.9,25.0,42,30.31,10.0,East,6.9,-,N/A,,Scattered Clouds,90,2013-02-19 14:53:00
9:53 AM,50.0,23.0,35,30.32,10.0,East,10.4,-,N/A,,Partly Cloudy,90,2013-02-19 15:53:00
10:53 AM,52.0,19.9,28,30.32,10.0,East,9.2,-,N/A,,Partly Cloudy,80,2013-02-19 16:53:00
12:53 PM,57.0,19.9,24,30.28,10.0,East,8.1,-,N/A,,Scattered Clouds,80,2013-02-19 18:53:00
1:53 PM,60.1,19.0,20,30.24,10.0,ENE,10.4,-,N/A,,Partly Cloudy,60,2013-02-19 19:53:00
2:53 PM,60.1,19.9,21,30.20,10.0,East,6.9,19.6,N/A,,Mostly Cloudy,90,2013-02-19 20:53:00
3:53 PM,61.0,19.0,20,30.17,10.0,East,9.2,18.4,N/A,,Mostly Cloudy,90,2013-02-19 21:53:00
4:53 PM,60.1,19.9,21,30.17,10.0,East,11.5,-,N/A,,Mostly Cloudy,100,2013-02-19 22:53:00
6:53 PM,55.9,21.0,26,30.17,10.0,East,8.1,-,N/A,,Overcast,100,2013-02-20 00:53:00
7:53 PM,55.9,21.9,27,30.16,10.0,East,9.2,-,N/A,,Overcast,90,2013-02-20 01:53:00
8:53 PM,55.9,21.9,27,30.17,10.0,ESE,6.9,-,N/A,,Overcast,110,2013-02-20 02:53:00
9:53 PM,55.0,24.1,30,30.17,10.0,ESE,10.4,-,0.00,Rain,Light Rain,110,2013-02-20 03:53:00
10:53 PM,53.1,28.9,40,30.16,10.0,ESE,12.7,-,0.00,Rain,Light Rain,110,2013-02-20 04:53:00
11:53 PM,53.1,28.0,38,30.15,10.0,East,9.2,-,0.00,Rain,Light Rain,100,2013-02-20 05:53:00